TimeEST,TemperatureF,Dew PointF,Humidity,Sea Level PressureIn,VisibilityMPH,Wind Direction,Wind SpeedMPH,Gust SpeedMPH,PrecipitationIn,Events,Conditions,WindDirDegrees,DateUTC
12:15 AM,46.4,44.6,93,30.39,5.0,Calm,Calm,-,N/A,,Clear,0,2012-11-11 05:15:00
12:35 AM,46.4,44.6,93,30.38,5.0,Calm,Calm,-,N/A,,Clear,0,2012-11-11 05:35:00
12:55 AM,46.4,44.6,93,30.38,5.0,Calm,Calm,-,N/A,,Clear,0,2012-11-11 05:55:00
1:15 AM,46.4,44.6,93,30.38,5.0,Calm,Calm,-,N/A,,Clear,0,2012-11-11 06:15:00
1:55 AM,46.4,44.6,93,30.37,5.0,Calm,Calm,-,N/A,,Clear,0,2012-11-11 06:55:00
2:15 AM,46.4,44.6,93,30.37,6.0,Calm,Calm,-,N/A,,Clear,0,2012-11-11 07:15:00
2:35 AM,46.4,44.6,93,30.37,7.0,Calm,Calm,-,N/A,,Clear,0,2012-11-11 07:35:00
2:55 AM,46.4,44.6,93,30.37,6.0,Calm,Calm,-,N/A,,Partly Cloudy,0,2012-11-11 07:55:00
3:15 AM,46.4,46.4,100,30.37,7.0,Calm,Calm,-,N/A,,Partly Cloudy,0,2012-11-11 08:15:00
3:35 AM,46.4,46.4,100,30.37,5.0,Calm,Calm,-,N/A,,Clear,0,2012-11-11 08:35:00
4:15 AM,46.4,46.4,100,30.38,6.0,Calm,Calm,-,N/A,,Clear,0,2012-11-11 09:15:00
4:35 AM,46.4,46.4,100,30.38,5.0,Calm,Calm,-,N/A,,Clear,0,2012-11-11 09:35:00
4:55 AM,46.4,46.4,100,30.38,6.0,Calm,Calm,-,N/A,,Clear,0,2012-11-11 09:55:00
5:15 AM,48.2,46.4,93,30.39,7.0,Calm,Calm,-,N/A,,Scattered Clouds,0,2012-11-11 10:15:00
5:35 AM,48.2,48.2,100,30.39,7.0,Calm,Calm,-,N/A,,Mostly Cloudy,0,2012-11-11 10:35:00
5:55 AM,50.0,48.2,94,30.39,7.0,Calm,Calm,-,N/A,,Scattered Clouds,0,2012-11-11 10:55:00
6:15 AM,51.8,50.0,94,30.39,7.0,Calm,Calm,-,N/A,,Mostly Cloudy,0,2012-11-11 11:15:00
6:35 AM,50.0,50.0,100,30.40,5.0,NNE,3.5,-,N/A,,Partly Cloudy,20,2012-11-11 11:35:00
7:15 AM,51.8,51.8,100,30.41,5.0,NNE,3.5,-,N/A,,Clear,30,2012-11-11 12:15:00
7:35 AM,53.6,53.6,100,30.42,5.0,NNE,3.5,-,N/A,,Partly Cloudy,30,2012-11-11 12:35:00
7:55 AM,55.4,55.4,100,30.43,8.0,NNE,3.5,-,N/A,,Scattered Clouds,30,2012-11-11 12:55:00
8:15 AM,57.2,55.4,94,30.43,10.0,NNE,3.5,-,N/A,,Scattered Clouds,20,2012-11-11 13:15:00
8:35 AM,57.2,55.4,94,30.43,9.0,NNE,3.5,-,N/A,,Scattered Clouds,20,2012-11-11 13:35:00
8:55 AM,60.8,55.4,82,30.44,9.0,NNE,3.5,-,N/A,,Scattered Clouds,30,2012-11-11 13:55:00
9:15 AM,62.6,57.2,82,30.44,10.0,Calm,Calm,-,N/A,,Partly Cloudy,0,2012-11-11 14:15:00
9:35 AM,66.2,60.8,83,30.44,10.0,NNE,4.6,-,N/A,,Clear,30,2012-11-11 14:35:00
9:55 AM,69.8,60.8,73,30.44,10.0,Calm,Calm,-,N/A,,Clear,0,2012-11-11 14:55:00
10:15 AM,71.6,60.8,69,30.44,10.0,NE,4.6,-,N/A,,Clear,40,2012-11-11 15:15:00
10:35 AM,71.6,60.8,69,30.44,10.0,East,4.6,-,N/A,,Clear,90,2012-11-11 15:35:00
10:55 AM,73.4,60.8,65,30.43,10.0,Calm,Calm,-,N/A,,Clear,0,2012-11-11 15:55:00
11:15 AM,73.4,60.8,65,30.42,10.0,East,9.2,-,N/A,,Clear,100,2012-11-11 16:15:00
11:35 AM,73.4,60.8,65,30.42,10.0,East,5.8,-,N/A,,Clear,100,2012-11-11 16:35:00
11:55 AM,73.4,60.8,65,30.42,10.0,East,4.6,-,N/A,,Clear,90,2012-11-11 16:55:00
12:15 PM,75.2,62.6,65,30.42,10.0,East,8.1,-,N/A,,Clear,100,2012-11-11 17:15:00
12:55 PM,75.2,60.8,61,30.41,10.0,East,5.8,-,N/A,,Partly Cloudy,90,2012-11-11 17:55:00
1:15 PM,75.2,60.8,61,30.40,10.0,East,4.6,-,N/A,,Clear,100,2012-11-11 18:15:00
1:35 PM,75.2,60.8,61,30.40,10.0,East,3.5,-,N/A,,Clear,80,2012-11-11 18:35:00
1:55 PM,75.2,60.8,61,30.39,10.0,ESE,5.8,-,N/A,,Clear,110,2012-11-11 18:55:00
2:15 PM,75.2,60.8,61,30.40,10.0,East,5.8,-,N/A,,Clear,80,2012-11-11 19:15:00
2:35 PM,75.2,60.8,61,30.39,10.0,ESE,5.8,-,N/A,,Clear,110,2012-11-11 19:35:00
2:55 PM,73.4,62.6,69,30.39,10.0,East,5.8,-,N/A,,Clear,100,2012-11-11 19:55:00
3:15 PM,75.2,60.8,61,30.39,10.0,ENE,8.1,-,N/A,,Clear,70,2012-11-11 20:15:00
3:35 PM,73.4,62.6,69,30.39,10.0,East,4.6,-,N/A,,Clear,80,2012-11-11 20:35:00
3:55 PM,73.4,62.6,69,30.39,10.0,East,3.5,-,N/A,,Clear,80,2012-11-11 20:55:00
4:15 PM,71.6,62.6,73,30.39,10.0,East,3.5,-,N/A,,Clear,90,2012-11-11 21:15:00
4:35 PM,69.8,60.8,73,30.39,10.0,Calm,Calm,-,N/A,,Clear,0,2012-11-11 21:35:00
4:55 PM,69.8,60.8,73,30.39,10.0,ENE,6.9,-,N/A,,Clear,70,2012-11-11 21:55:00
5:15 PM,68.0,60.8,78,30.39,10.0,ENE,4.6,-,N/A,,Scattered Clouds,70,2012-11-11 22:15:00
5:35 PM,68.0,60.8,78,30.39,10.0,ENE,5.8,-,N/A,,Mostly Cloudy,60,2012-11-11 22:35:00
5:55 PM,66.2,60.8,83,30.39,10.0,East,3.5,-,N/A,,Overcast,80,2012-11-11 22:55:00
6:15 PM,66.2,62.6,88,30.40,10.0,East,3.5,-,N/A,,Mostly Cloudy,80,2012-11-11 23:15:00
6:35 PM,64.4,62.6,94,30.40,5.0,Calm,Calm,-,0.02,,Light Drizzle,0,2012-11-11 23:35:00
7:15 PM,64.4,62.6,94,30.39,10.0,East,3.5,-,N/A,,Mostly Cloudy,100,2012-11-12 00:15:00
7:35 PM,64.4,62.6,94,30.39,10.0,NE,3.5,-,N/A,,Partly Cloudy,40,2012-11-12 00:35:00
7:55 PM,64.4,62.6,94,30.39,9.0,ENE,3.5,-,N/A,,Clear,60,2012-11-12 00:55:00
8:15 PM,64.4,62.6,94,30.39,8.0,ENE,4.6,-,N/A,,Clear,60,2012-11-12 01:15:00
8:35 PM,62.6,62.6,100,30.39,8.0,NE,3.5,-,N/A,,Clear,50,2012-11-12 01:35:00
8:55 PM,62.6,62.6,100,30.39,7.0,ENE,3.5,-,N/A,,Clear,60,2012-11-12 01:55:00
9:15 PM,62.6,62.6,100,30.39,6.0,NE,3.5,-,N/A,,Clear,50,2012-11-12 02:15:00
9:35 PM,62.6,62.6,100,30.39,5.0,Calm,Calm,-,N/A,,Clear,0,2012-11-12 02:35:00
10:15 PM,62.6,62.6,100,30.38,6.0,Calm,Calm,-,N/A,,Clear,0,2012-11-12 03:15:00
10:35 PM,62.6,60.8,94,30.38,5.0,Calm,Calm,-,N/A,,Partly Cloudy,0,2012-11-12 03:35:00
10:55 PM,62.6,62.6,100,30.38,5.0,Calm,Calm,-,N/A,,Partly Cloudy,0,2012-11-12 03:55:00
11:15 PM,60.8,60.8,100,30.37,4.0,Calm,Calm,-,N/A,,Partly Cloudy,0,2012-11-12 04:15:00
11:35 PM,60.8,60.8,100,30.37,3.0,Calm,Calm,-,N/A,,Clear,0,2012-11-12 04:35:00
11:55 PM,60.8,59.0,94,30.36,1.2,Calm,Calm,-,N/A,,Clear,0,2012-11-12 04:55:00